Tracking 31027 objects as of 18-Jul-2025
HD Live streaming from Space Station
objects crossing your sky now

DELTA 1 DEB

Track DELTA 1 DEB now!
10-day predictions


NORAD ID: 10652
Int'l Code: 1976-077N
Perigee: 1,494.9 km
Apogee: 1,902.5 km
Inclination: 102.9 °
Period: 120.2 minutes
Semi major axis: 8069 km
RCS: 0.0957 m2 (small)
Launch date: July 29, 1976
Source: United States (US)
Launch site: AIR FORCE WESTERN TEST RANGE (AFWTR)

Note: This is SATELLITE DEBRIS
Your satellite tracking list
Your tracking list is empty




NASA's NSSDC Master Catalog

Two Line Element Set (TLE):
1 10652U 76077N   25198.65980645  .00001143  00000-0  13792-1 0  9991
2 10652 102.8868  90.1723 0252552  81.0089 281.9438 11.97612238111983
Source of the keplerian elements: AFSPC